SKYSAT-C5

Last updated on Thu Oct 16 2025 00:02:30 GMT+0000 (Coordinated Universal Time)

1 41772U 16058C 25288.56995549 .00013273 00000+0 37954-3 0 9994 2 41772 97.0862 334.5506 0002156 244.6810 115.4211 15.36088582506237
UTC large
Height (km)
Speed (km/s)
/
Latitude / Longitude
Inclination (degrees)
Orbital Period (minutes)
Azimuth
Elevation
Range (km)
Doppler Factor

Next 0 passes for location: London (51.5072 / 0.1276)

Sorry there are no passes over London.